Storm Lake, IA

8:48 AM CDT on April 19, 2018 (GMT -0500)
Storm Lake Municipal

Weather History for KSLB - June, 2013

Change the Weather History Date:

Sunday, June 23, 2013

  Actual Average Record
Temperature  
Mean Temperature 71 °F -  
Max Temperature 78 °F 81 °F 98 °F (2005)
Min Temperature 64 °F 60 °F 53 °F (2001)
Cooling Degree Days 6    
Growing Degree Days 21 (Base 50)    
Moisture  
Dew Point 66 °F    
Average Humidity 80    
Maximum Humidity 100    
Minimum Humidity 61    
Precipitation  
Precipitation 0.18 in - - ()
Sea Level Pressure  
Sea Level Pressure 29.85 in    
Wind  
Wind Speed 13 mph (SSW)    
Max Wind Speed 22 mph    
Max Gust Speed 28 mph    
Visibility 10 miles    
Events Rain    
Averages and records for this station are not official NWS values.
T = Trace of Precipitation, MM = Missing Value Source: NWS Daily Summary

Daily Weather History Graph

Daily Weather History Graph

Search for Another Location

Airport or City:

Trip Planner

Search our weather history database for the weather conditions in past years. The results will help you decide how hot, cold, wet, or windy it might be!

Date:

Astronomy

Jun. 23, 2013 Rise Set
Actual Time 5:43 AM CDT 9:02 PM CDT
Civil Twilight 5:08 AM CDT 9:37 PM CDT
Nautical Twilight 4:23 AM CDT 10:22 PM CDT
Astronomical Twilight 3:27 AM CDT 11:18 PM CDT
Moon 9:13 PM CDT (6/23) 6:03 AM CDT (6/23)
Length of Visible Light 16h 28m
Length of Day
15h 18m
Full, 100% of the Moon is Illuminated
Jun 23
Full
Jun 29
Last Quarter
Jul 8
New
Jul 15
First Quarter
Jul 22
Full

Hourly Weather History & Observations

Time (CDT) Temp. Dew Point Humidity Pressure Visibility Wind Dir Wind Speed Gust Speed Precip Events Conditions
12:15 AM 73.4 °F 66.2 °F 78% 29.77 in 10.0 mi South 15.0 mph - N/A   Clear
12:35 AM 75.2 °F 66.2 °F 73% 29.75 in 10.0 mi South 17.3 mph 23.0 mph N/A   Clear
12:55 AM 75.2 °F 66.2 °F 73% 29.76 in 10.0 mi South 16.1 mph 23.0 mph N/A   Clear
1:15 AM 75.2 °F 68.0 °F 78% 29.77 in 10.0 mi South 15.0 mph - N/A   Clear
1:35 AM 75.2 °F 68.0 °F 78% 29.78 in 10.0 mi South 15.0 mph - N/A   Clear
1:55 AM 75.2 °F 68.0 °F 78% 29.78 in 10.0 mi South 16.1 mph 23.0 mph N/A   Clear
2:15 AM 75.2 °F 68.0 °F 78% 29.78 in 10.0 mi South 17.3 mph 23.0 mph N/A   Clear
2:35 AM 75.2 °F 68.0 °F 78% 29.77 in 10.0 mi South 19.6 mph 25.3 mph N/A   Clear
2:55 AM 75.2 °F 68.0 °F 78% 29.77 in 10.0 mi South 21.9 mph - N/A   Clear
3:15 AM 75.2 °F 68.0 °F 78% 29.76 in 10.0 mi South 19.6 mph 26.5 mph N/A   Partly Cloudy
3:35 AM 75.2 °F 69.8 °F 83% 29.76 in 10.0 mi South 20.7 mph - N/A   Mostly Cloudy
3:55 AM 75.2 °F 69.8 °F 83% 29.79 in 10.0 mi SSW 18.4 mph 24.2 mph N/A   Overcast
4:15 AM 75.2 °F 69.8 °F 83% 29.80 in 7.0 mi SW 20.7 mph - N/A   Light Drizzle
4:35 AM 71.6 °F 69.8 °F 94% 29.82 in 2.5 mi SSW 15.0 mph 24.2 mph N/A Rain Light Rain
4:55 AM 71.6 °F 68.0 °F 88% 29.83 in 7.0 mi WSW 16.1 mph 24.2 mph 0.13 in   Light Drizzle
5:15 AM 69.8 °F 64.4 °F 83% 29.84 in 9.0 mi WNW 17.3 mph - N/A Rain Light Rain
5:35 AM 68.0 °F 64.4 °F 88% 29.87 in 10.0 mi West 11.5 mph - N/A   Light Drizzle
5:55 AM 66.2 °F 64.4 °F 94% 29.87 in 8.0 mi West 9.2 mph - 0.01 in Rain Light Rain
6:15 AM 66.2 °F 62.6 °F 88% 29.86 in 9.0 mi WNW 9.2 mph 20.7 mph N/A Rain Light Rain
6:35 AM 66.2 °F 62.6 °F 88% 29.88 in 8.0 mi Calm Calm - N/A   Light Drizzle
6:55 AM 66.2 °F 62.6 °F 88% 29.86 in 5.0 mi South 4.6 mph - 0.02 in Rain Light Rain
7:15 AM 64.4 °F 64.4 °F 100% 29.86 in 10.0 mi SSW 6.9 mph - N/A   Light Drizzle
7:35 AM 64.4 °F 64.4 °F 100% 29.84 in 10.0 mi South 6.9 mph - N/A   Light Drizzle
7:55 AM 64.4 °F 64.4 °F 100% 29.75 in 8.0 mi SE 17.3 mph - 0.01 in   Light Drizzle
8:15 AM 64.4 °F 62.6 °F 94% 29.72 in 10.0 mi SE 19.6 mph 27.6 mph N/A   Clear
8:35 AM 66.2 °F 62.6 °F 88% 29.75 in 10.0 mi SE 15.0 mph - N/A   Clear
8:55 AM 66.2 °F 62.6 °F 88% 29.75 in 10.0 mi SE 9.2 mph 18.4 mph N/A   Clear
9:15 AM 66.2 °F 62.6 °F 88% 29.77 in 10.0 mi South 5.8 mph 11.5 mph N/A   Clear
9:35 AM 68.0 °F 60.8 °F 78% 29.78 in 10.0 mi South 13.8 mph 23.0 mph N/A   Clear
9:55 AM 68.0 °F 62.6 °F 83% 29.83 in 10.0 mi WNW 11.5 mph 19.6 mph 0.01 in   Clear
10:15 AM 68.0 °F 64.4 °F 88% 29.85 in 10.0 mi WNW 15.0 mph - N/A   Clear
10:35 AM 69.8 °F 64.4 °F 83% 29.86 in 10.0 mi West 16.1 mph - N/A   Clear
10:55 AM 69.8 °F 64.4 °F 83% 29.87 in 10.0 mi West 16.1 mph - N/A   Clear
11:15 AM 69.8 °F 64.4 °F 83% 29.87 in 10.0 mi West 13.8 mph 21.9 mph N/A   Clear
11:35 AM 71.6 °F 66.2 °F 83% 29.86 in 10.0 mi West 19.6 mph - N/A   Clear
11:55 AM 71.6 °F 66.2 °F 83% 29.86 in 10.0 mi West 15.0 mph 21.9 mph N/A   Clear
12:15 PM 71.6 °F 66.2 °F 83% 29.87 in 10.0 mi West 13.8 mph 23.0 mph N/A   Clear
12:35 PM 71.6 °F 64.4 °F 78% 29.89 in 10.0 mi WSW 15.0 mph - N/A   Clear
12:55 PM 73.4 °F 66.2 °F 78% 29.89 in 10.0 mi WSW 13.8 mph - N/A   Clear
1:15 PM 73.4 °F 66.2 °F 78% 29.89 in 10.0 mi WSW 11.5 mph - N/A   Clear
1:35 PM 73.4 °F 64.4 °F 73% 29.89 in 10.0 mi WSW 9.2 mph 16.1 mph N/A   Clear
1:55 PM 75.2 °F 66.2 °F 73% 29.88 in 10.0 mi SW 9.2 mph 15.0 mph N/A   Clear
2:15 PM 75.2 °F 66.2 °F 73% 29.88 in 10.0 mi SW 12.7 mph - N/A   Clear
2:35 PM 77.0 °F 64.4 °F 65% 29.88 in 10.0 mi SSW 11.5 mph - N/A   Clear
2:55 PM 77.0 °F 66.2 °F 69% 29.87 in 10.0 mi SW 9.2 mph - N/A   Clear
3:15 PM 77.0 °F 64.4 °F 65% 29.87 in 10.0 mi WSW 10.4 mph 17.3 mph N/A   Clear
3:35 PM 78.8 °F 64.4 °F 61% 29.87 in 10.0 mi WSW 11.5 mph - N/A   Clear
3:55 PM 78.8 °F 64.4 °F 61% 29.87 in 10.0 mi SW 10.4 mph 18.4 mph N/A   Clear
4:15 PM 78.8 °F 66.2 °F 65% 29.86 in 10.0 mi SW 11.5 mph - N/A   Clear
4:35 PM 78.8 °F 66.2 °F 65% 29.87 in 10.0 mi WSW 11.5 mph - N/A   Clear
4:55 PM 78.8 °F 64.4 °F 61% 29.87 in 10.0 mi WSW 11.5 mph - N/A   Clear
5:15 PM 78.8 °F 64.4 °F 61% 29.87 in 10.0 mi WSW 11.5 mph - N/A   Clear
5:35 PM 78.8 °F 64.4 °F 61% 29.87 in 10.0 mi West 10.4 mph - N/A   Clear
5:55 PM 78.8 °F 64.4 °F 61% 29.87 in 10.0 mi West 5.8 mph - N/A   Clear
6:15 PM 78.8 °F 64.4 °F 61% 29.88 in 10.0 mi WSW 4.6 mph 11.5 mph N/A   Clear
6:35 PM 78.8 °F 66.2 °F 65% 29.88 in 10.0 mi SW 6.9 mph - N/A   Partly Cloudy
6:55 PM 78.8 °F 66.2 °F 65% 29.87 in 10.0 mi SSW 8.1 mph - N/A   Scattered Clouds
7:15 PM 77.0 °F 66.2 °F 69% 29.88 in 10.0 mi SSW 5.8 mph - N/A   Scattered Clouds
7:35 PM 77.0 °F 68.0 °F 74% 29.88 in 10.0 mi South 8.1 mph - N/A   Scattered Clouds
7:55 PM 77.0 °F 68.0 °F 74% 29.88 in 10.0 mi South 6.9 mph - N/A   Partly Cloudy
8:15 PM 75.2 °F 68.0 °F 78% 29.88 in 10.0 mi SSW 5.8 mph - N/A   Clear
8:35 PM 75.2 °F 68.0 °F 78% 29.88 in 10.0 mi South 4.6 mph - N/A   Clear
8:55 PM 73.4 °F 68.0 °F 83% 29.88 in 10.0 mi South 5.8 mph - N/A   Clear
9:15 PM 71.6 °F 68.0 °F 88% 29.89 in 10.0 mi SSE 5.8 mph - N/A   Clear
9:35 PM 71.6 °F 68.0 °F 88% 29.90 in 10.0 mi SSE 6.9 mph - N/A   Clear
9:55 PM 71.6 °F 68.0 °F 88% 29.91 in 10.0 mi South 6.9 mph - N/A   Clear
10:15 PM 71.6 °F 68.0 °F 88% 29.91 in 10.0 mi South 6.9 mph - N/A   Clear
10:35 PM 69.8 °F 68.0 °F 94% 29.92 in 10.0 mi SSE 6.9 mph - N/A   Clear
10:55 PM 69.8 °F 68.0 °F 94% 29.92 in 10.0 mi South 6.9 mph - N/A   Clear
11:15 PM 69.8 °F 68.0 °F 94% 29.93 in 10.0 mi South 5.8 mph - N/A   Clear
11:35 PM 69.8 °F 68.0 °F 94% 29.93 in 10.0 mi SE 4.6 mph - N/A   Mostly Cloudy
11:55 PM 69.8 °F 68.0 °F 94% 29.92 in 10.0 mi SSE 4.6 mph - N/A   Mostly Cloudy